Location: B?lite?ti
(46.2833°N, 22.7333°E)
Time: 16:10:58
(UTC+00:00)

Cosmos 2082 Rocket - Pass Details

Date: 24 January 2021
Orbit: 832 x 855 km, 71.0° (Epoch: 28 February)

Event Time Altitude Azimuth Distance (km) Brightness Sun altitude
Rises 18:36:28 0° 330° (NNW) 3,435 5.8 -33.4°
Reaches altitude 10° 18:38:57 10° 328° (NNW) 2,494 5.0 -33.8°
Enters shadow 18:42:40 40° 311° (NW) 1,239 3.3 -34.4°
